CW7453 Weather Reports


time (UTC)temp
C
wind
direction
speed
KPH
gust
KPH
rain 1hr
cm
rain 24hr
cm
rain mn
cm
humidity
%
barometer
mb
20260510180100 26 41 1.6 3.2 0.00 0.00 0.00 39 1016.0
20260510174605 25 259 3.2 6.4 0.00 0.00 0.00 40 1016.1
20260510173104 26 271 0.0 6.4 0.00 0.00 0.00 40 1016.4
20260510171559 26 0 0.0 4.8 0.00 0.00 0.00 43 1016.5
20260510170059 26 92 0.0 6.4 0.00 0.00 0.00 42 1016.7
20260510164610 26 98 0.0 8.0 0.00 0.00 0.00 42 1016.8
20260510163057 26 0 0.0 8.0 0.00 0.00 0.00 45 1016.6
20260510161558 25 44 1.6 6.4 0.00 0.00 0.00 45 1016.9
20260510160059 25 116 0.0 4.8 0.00 0.00 0.00 45 1016.9
20260510154602 25 79 1.6 4.8 0.00 0.00 0.00 46 1017.0
20260510153059 24 60 1.6 9.7 0.00 0.00 0.00 48 1016.9
20260510151608 23 37 1.6 4.8 0.00 0.00 0.00 49 1016.9
20260510150122 23 38 1.6 8.0 0.00 0.00 0.00 51 1016.6
20260510144615 23 72 1.6 6.4 0.00 0.00 0.00 51 1016.7
20260510143057 23 335 1.6 6.4 0.00 0.00 0.00 50 1016.6
20260510141554 22 59 0.0 4.8 0.00 0.00 0.00 56 1016.5
20260510140054 21 278 1.6 3.2 0.00 0.00 0.00 62 1016.3
20260510134607 21 314 0.0 3.2 0.00 0.00 0.00 65 1016.2
20260510133055 18 266 0.0 4.8 0.00 0.00 0.00 69 1016.3
20260510131600 18 246 1.6 4.8 0.00 0.00 0.00 72 1016.3
20260510130054 17 0 0.0 6.4 0.00 0.00 0.00 74 1016.3
20260510124601 16 269 0.0 4.8 0.00 0.00 0.00 75 1016.3
20260510123058 16 267 0.0 3.2 0.00 0.00 0.00 76 1016.2
20260510121557 15 0 0.0 3.2 0.00 0.00 0.00 76 1016.3
20260510120054 15 66 0.0 3.2 0.00 0.00 0.00 75 1016.2
20260510114614 15 0 1.6 3.2 0.00 0.00 0.00 70 1016.1
20260510113059 15 94 0.0 1.6 0.00 0.00 0.00 68 1015.8
20260510111559 16 0 0.0 1.6 0.00 0.00 0.00 61 1015.5
20260510110056 16 94 0.0 0.0 0.00 0.00 0.00 60 1015.1
20260510104610 15 0 0.0 0.0 0.00 0.00 0.00 62 1015.0
20260510103054 15 0 0.0 0.0 0.00 0.00 0.00 62 1014.8
20260510101605 15 0 0.0 0.0 0.00 0.00 0.00 63 1014.5
20260510100104 14 0 0.0 0.0 0.00 0.00 0.00 66 1014.3
20260510094605 13 0 0.0 0.0 0.00 0.00 0.00 69 1014.2
20260510093100 13 0 0.0 0.0 0.00 0.00 0.00 69 1014.2
20260510091554 13 0 0.0 0.0 0.00 0.00 0.00 71 1014.3
20260510090056 13 0 0.0 0.0 0.00 0.00 0.00 72 1014.2
20260510084553 13 0 0.0 0.0 0.00 0.00 0.00 74 1014.3
20260510083053 13 0 0.0 0.0 0.00 0.00 0.00 73 1014.3
20260510081558 13 0 0.0 0.0 0.00 0.00 0.00 72 1014.1
20260510080057 13 0 0.0 1.6 0.00 0.00 0.00 77 1013.8
20260510074605 13 81 0.0 1.6 0.00 0.00 0.00 79 1013.6
20260510073056 12 81 0.0 3.2 0.00 0.00 0.00 83 1013.6
20260510071557 12 90 1.6 3.2 0.00 0.00 0.00 84 1013.5
20260510070108 12 93 1.6 3.2 0.00 0.00 0.00 84 1013.3
20260510064601 12 86 1.6 1.6 0.00 0.00 0.00 82 1013.3
20260510063101 13 89 0.0 1.6 0.00 0.00 0.00 80 1013.3
20260510061558 13 90 0.0 1.6 0.00 0.00 0.00 78 1013.3
20260510060056 13 88 0.0 1.6 0.00 0.00 0.00 78 1013.2
20260510054601 13 92 1.6 3.2 0.00 0.00 0.00 78 1013.2
20260510053057 14 87 0.0 1.6 0.00 0.00 0.00 77 1013.3
20260510051558 14 87 0.0 1.6 0.00 0.00 0.00 77 1013.5
20260510050059 14 88 0.0 1.6 0.00 0.00 0.00 77 1013.4
20260510044604 13 88 0.0 1.6 0.00 0.00 0.00 77 1013.4
20260510043106 14 93 1.6 1.6 0.00 0.00 0.00 77 1013.5
20260510041600 13 91 1.6 3.2 0.00 0.00 0.00 76 1013.4
20260510040100 14 96 1.6 3.2 0.00 0.00 0.00 74 1013.4
20260510034555 15 91 3.2 4.8 0.00 0.00 0.00 69 1013.3
20260510033121 17 88 0.0 3.2 0.00 0.00 0.00 64 1013.2
20260510031621 17 0 0.0 1.6 0.00 0.00 0.00 61 1013.1
20260510024557 17 342 0.0 3.2 0.00 0.00 0.00 61 1013.3
20260510023059 17 0 0.0 3.2 0.00 0.00 0.00 61 1013.1
20260510021600 17 0 0.0 3.2 0.00 0.00 0.00 63 1013.1
20260510020109 17 0 0.0 3.2 0.00 0.00 0.00 61 1012.9
20260510014609 17 0 0.0 0.0 0.00 0.00 0.00 60 1012.8
20260510013109 17 0 0.0 0.0 0.00 0.00 0.00 60 1012.6
20260510011612 17 0 0.0 0.0 0.00 0.00 0.00 59 1012.2
20260510010110 18 0 0.0 0.0 0.00 0.00 0.00 59 1011.9
20260510004603 17 0 0.0 0.0 0.00 0.00 0.00 59 1011.8
20260510003111 18 0 0.0 0.0 0.00 0.00 0.00 59 1011.7
20260510001608 18 0 0.0 0.0 0.00 0.00 0.00 60 1011.7
20260510000100 18 0 0.0 0.0 0.00 0.00 0.00 61 1011.7
20260509234607 18 0 0.0 0.0 0.00 0.00 0.00 59 1011.6
20260509233059 18 0 0.0 0.0 0.00 0.00 0.00 60 1011.5
20260509231557 19 0 0.0 0.0 0.00 0.00 0.00 60 1011.3
20260509230106 20 0 0.0 1.6 0.00 0.00 0.00 60 1011.3
20260509224557 20 0 0.0 1.6 0.00 0.00 0.00 57 1011.3
20260509223100 20 0 0.0 3.2 0.00 0.00 0.00 54 1011.4
20260509221558 20 120 1.6 3.2 0.00 0.00 0.00 51 1011.3
20260509220103 21 0 0.0 3.2 0.00 0.00 0.00 53 1011.4
20260509214558 20 75 0.0 1.6 0.00 0.00 0.00 58 1011.5
20260509213103 21 0 0.0 1.6 0.00 0.00 0.00 55 1011.3
20260509211604 21 93 0.0 3.2 0.00 0.00 0.00 54 1011.3
20260509204604 21 0 0.0 6.4 0.00 0.00 0.00 54 1011.2
20260509203100 21 268 0.0 4.8 0.00 0.00 0.00 54 1011.2
20260509201556 20 286 1.6 3.2 0.00 0.00 0.00 54 1011.2
20260509200057 20 286 1.6 9.7 0.00 0.00 0.00 57 1011.1
20260509194557 20 45 1.6 8.0 0.00 0.00 0.00 57 1011.4
20260509193057 19 250 3.2 9.7 0.00 0.00 0.00 62 1011.5
20260509191601 18 240 1.6 8.0 0.00 0.00 0.00 62 1011.9
20260509190059 18 0 1.6 8.0 0.00 0.00 0.00 61 1012.0
20260509184558 18 250 1.6 9.7 0.00 0.00 0.00 60 1012.2
20260509183057 18 318 0.0 11.3 0.00 0.00 0.00 61 1012.4
20260509181603 18 0 0.0 4.8 0.00 0.00 0.00 61 1012.3